TITAN 3C TRANSTAGE DEB, 1833

Orbit data source: Space-Track

TITAN 3C TRANSTAGE DEB, 1833 is space debris in LEO originally from a launch on Fri, 15 Oct 1965 UTC launched from the Air Force Eastern Test Range (AFETR). Debris objects in space refer to the collection of defunct objects orbiting the Earth. Examples of debris include non-operational satellites, rocket bodies, and fragments generated from explosions, collisions, or faulty payload assembly.

Loading next visibility...
Identifier
1833, 1965-082DY
Orbit
LEO
Country
Flag of USUS
Related business
Manufacturer
Unknown
Mission
Spacecraft
Bus & Motor
Unknown
Mass
Unknown
Launch date (UTC)
1965-10-15 (60 years ago)
Launch vehicle
Unknown
Launch site
Air Force Eastern Test Range (AFETR)
Object type
Payload
Rocket body
Debris
Shape & HBR
Unknown
Radar Cross Section
Medium (>0.1 m² and <1 m²)

Expand to show TLE details & history
Last TLE update: 2 days ago

TLE from 2 days ago
0 TITAN 3C TRANSTAGE DEB
1 01833U 65082DY  25260.48296448  .00004469  00000-0  67691-3 0  9991
2 01833  32.2277  43.1631 0060972 155.6238 204.7313 14.71737526129704
Epoch: 2025-09-17T11:35Z
TLE epoch observation values (Epoch: 2025-09-17T11:35:28.131Z)
Latitude
-0.00002°
Longitude
-127.36242°
Altitude
693.168 km
Speed
7.491 km/s
True Right ascension
02h 52m 39s
True Declination
0° 00' 00"
Sunlit
Object was in full shadow at epoch
Visualization orbit readout
Latitude
Unknown
Longitude
Unknown
Altitude
Unknown
Speed
Unknown
Apparent Right ascension
Unknown
Apparent Declination
Unknown
Sunlit
N/A
Visualization observer readout
Local Sidereal Time
20:12:13
Azimuth
Unknown
Elevation
Unknown
Doppler factor
Unknown
Orbital elements
Apogee altitude
702.031 km
Perigee altitude
616.215 km
Semi-major axis
7,037.26 km
Eccentricity
0.0061
Inclination
32.2277°
RAAN
43.1631°
Arg. of periapsis
155.6238°
True anomaly
204.44101°
Mean anomaly
204.7313°
Eccentric anomaly
204.58595°
Mean motion
3.67653 °/min
Orbital period
97.92 mins
BSTAR
0.00067691
Loading maneuver chart data...
Computing Atmospheric mass density...

Documentation

Showing up to 5 results
|